Preview of NWS' New Version of Forecast
This preview is not operational and should not be used for support decisions.

Regional Weather Roundup (RWR)

Issued by National Weather Service (NWS)

                            
000
ASUS43 KMKX 201320
RWRWI 

WISCONSIN REGIONAL WEATHER ROUNDUP
NATIONAL WEATHER SERVICE MILWAUKEE/SULLIVAN WI
700 AM CST WED FEB 20 2019

NOTE: "FAIR" INDICATES FEW OR NO CLOUDS BELOW 12,000 FEET WITH NO
SIGNIFICANT WEATHER AND/OR OBSTRUCTIONS TO VISIBILITY.

WIZ001-002-006>008-014>016-023>028-201400-
NORTHWEST WISCONSIN
  
CITY           SKY/WX    TMP DP  RH WIND       PRES   REMARKS
SUPERIOR ARPT  CLOUDY    14   7  72 E6        30.06F WCI   5          
ASHLAND        CLOUDY    12   5  73 NE6       30.07F WCI   3          
HAYWARD        CLOUDY    18   8  65 SE8       29.99F WCI   8          
SIREN          LGT SNOW  16  10  77 E3        29.98F VSB 1            
CUMBERLAND     SNOW      18  14  86 E10       29.95F VSB 1/2 WCI   6  
RICE LAKE      LGT SNOW  17  16  93 E10       29.98F WCI   5          
CHETEK         LGT SNOW  17  14  90 E7        29.97F VSB 3/4 WCI   7  
LADYSMITH      LGT SNOW  20  15  82 E10       30.00F WCI   9          
EAU CLAIRE     LGT SNOW  21  17  84 E13       29.95F FOG     WCI   9  
MENOMONIE      LGT SNOW  17  14  88 E12       29.94F VSB 3/4 WCI   4  
NEW RICHMOND   LGT SNOW  19  16  86 E12       29.92F VSB 1   WCI   7  
OSCEOLA        SNOW      19  17  92 E7        29.96F VSB 1/2 WCI  10  
$$
 
WIZ003>005-009-010-017-018-201400-
NORTH CENTRAL WISCONSIN
  
CITY           SKY/WX    TMP DP  RH WIND       PRES   REMARKS
MANITOWISH WTR NOT AVBL                                               
ARBOR VITAE    CLOUDY    17  12  81 SE7       30.01F WCI   7          
WOODRUFF       CLOUDY    17  12  81 SE7       30.01F WCI   7          
RHINELANDER    CLOUDY    16   9  74 SE7       30.05F WCI   6          
EAGLE RIVER    CLOUDY    14   9  78 CALM      30.06S                  
LAND O LAKES   CLOUDY    14  10  85 SE6       30.07S WCI   5          
PHILLIPS       CLOUDY    15  10  78 SE7       30.00F WCI   5          
TOMAHAWK       CLOUDY    17  11  78 E3        30.04F                  
MEDFORD        LGT SNOW  17  14  88 E9G16     29.96F WCI   5          
MERRILL        LGT SNOW  17  13  86 E6        30.04F WCI   8          
$$
 
WIZ029-030-035-036-043>047-201400-
CENTRAL WISCONSIN
  
CITY           SKY/WX    TMP DP  RH WIND       PRES   REMARKS
WAUSAU         LGT SNOW  17  14  88 E10       30.03F FOG     WCI   5  
MOSINEE        LGT SNOW  18  16  93 E10       30.05F WCI   6          
MARSHFIELD     LGT SNOW  19  17  92 E14G24    29.95F VSB 3/4 WCI   6  
STEVENS POINT  LGT SNOW  19  18  98 E12       30.03F WCI   6          
WAUPACA        LGT SNOW  23  20  87 NE12      30.05F WCI  12          
WAUTOMA        LGT SNOW  23  21  93 E12       30.01F FOG     WCI  12  
WISC RAPIDS    LGT SNOW  22  16  78 E13G23    30.00F VSB 3/4 WCI  10  
CAMP DOUGLAS   SNOW      23  23 100 E18       29.94F VSB 1/2 WCI   9  
$$
 
WIZ011>013-019>022-031-037>040-048>050-201400-
NORTHEAST WISCONSIN
  
CITY           SKY/WX    TMP DP  RH WIND       PRES   REMARKS
ANTIGO         LGT SNOW  17  14  91 E17       30.05F VSB 3/4 WCI   1  
SHAWANO        LGT SNOW  18  13  80 NE6       30.12F WCI  10          
OCONTO         CLOUDY    18  16  90 NE5       30.16F WCI  11          
STURGEON BAY   CLOUDY    27  20  75 SE10      30.17F WCI  17          
GREEN BAY      LGT SNOW  23  18  81 NE10      30.11F VSB 1   WCI  12  
MANITOWOC      LGT SNOW  27  23  85 E15       30.11F FOG     WCI  15  
APPLETON       LGT SNOW  21  18  86 E8        30.05F VSB 1   WCI  12  
CLINTONVILLE   CLOUDY    19  16  87 NE6       30.09F FOG     WCI  11  
OSHKOSH        LGT SNOW  25  23  92 E10       30.04F FOG     WCI  15  
$$
 
WIZ032>034-041-042-053>061-201400-
SOUTHWEST WISCONSIN
  
CITY           SKY/WX    TMP DP  RH WIND       PRES   REMARKS
LA CROSSE      LGT SNOW  25  22  88 E10G21    29.87F VSB 1   WCI  15  
SPARTA         LGT SNOW  23  21  93 E13G22    29.91F VSB 1   WCI  11  
VIROQUA        CLOUDY    24  24 100 E23G30    29.82F VSB 3/4 WCI   8  
BOSCOBEL       LGT SNOW  27  23  85 E8        29.88F FOG     WCI  19  
PRAIRIE DU CHI LGT SNOW  28  24  85 E16       29.81F WCI  15          
PLATTEVILLE    CLOUDY    27  27 100 E20       29.85F VSB 3/4 WCI  13  
$$

WIZ056-057-062-063-064-067-068-201400-
SOUTH CENTRAL WISCONSIN
  
CITY           SKY/WX    TMP DP  RH WIND       PRES   REMARKS
REEDSBURG      MIX PCPN  24  24  99 E9G17     29.92F WCI  15          
BARABOO/DELLS  LGT SNOW  25  23  93 E15G21    29.92F VSB 3/4 WCI  12  
LONE ROCK      LGT SNOW  27  25  92 E22G30    29.90F VSB 3/4 WCI  13  
MINERAL POINT  LGT SNOW  28  28 100 E22       29.85F VSB 3/4 WCI  15  
MADISON        LGT SNOW  27  24  89 E17       29.93F BLWGSNOWWCI  14  
MIDDLETON      CLOUDY    28  26  93 E15G21    29.93F WCI  16          
WATERTOWN      LGT SNOW  28  28 100 E17       29.96F WCI  15          
MONROE         LGT SNOW  27  26  94 MISG      29.86F VSB 1            
JANESVILLE     CLOUDY    28  28 100 E23       29.93F FOG     WCI  14  
$$
 
WIZ051-052-058>065-066-070>072-201400-
SOUTHEAST WISCONSIN
  
CITY           SKY/WX    TMP DP  RH WIND       PRES   REMARKS
MILWAUKEE      FLURRIES  31  25  78 E21       30.03F WCI  18          
WAUKESHA       LGT SNOW  27  25  93 E13       30.01F WCI  16          
MILWAUKEE/TIMM LGT SNOW  28  25  86 E13       30.00F WCI  18          
RACINE         MOCLDY    30  24  78 E17G28    30.03F WCI  18          
KENOSHA        CLOUDY    31  26  82 E17G31    29.97F WCI  19          
FOND DU LAC    LGT SNOW  26  23  88 E12       30.03F FOG     WCI  16  
SHEBOYGAN      FLURRIES  27  21  78 E13       30.08F WCI  16          
WEST BEND      LGT SNOW  28  27  93 E12       30.03F WCI  18          
JUNEAU         LGT SNOW  26  25  94 E13       30.00F WCI  15          
$$

LSZ147-162-201400-
LAKE SUPERIOR
  
STATION/POSITION TIME  TEMP    WIND        PRES    WAVE
                       AIR SEA DIR/SP/G            HT/PER
                 (UTC) (F)     (DEG/KT/KT) (MB)    (FT/S)
DEVILS ISLAND    1300   19      70/  8/  9 1020.4F
SAXON HARBOR     1230   11        CALM     1018.6F
$$
 
LMZ867-665-643>646-201400-
LAKE MICHIGAN
  
STATION/POSITION TIME  TEMP    WIND        PRES    WAVE
                       AIR SEA DIR/SP/G            HT/PER
                 (UTC) (F)     (DEG/KT/KT) (MB)    (FT/S)
NORTHPORT PIER   1240   28     150/  8/ 10 1022.4S
KEWAUNEE LAKESHO 1254   27     130/ 12/ 14 1020.3F
SHEBOYGAN LAKESH 1300   29     100/ 21/ 24 1019.4F
PORT WASHINGTON  1240   31     110/ 19/ 24 1019.6F
MILWAUKEE LAKESH 1250   31      90/ 23/ 26   N/A
KENOSHA   LAKESH 1300   31     100/ 21/ 25 1015.2
$$

TC  - TEMPERATURE IN CELSIUS
VSB - VISIBILITY IN STATUTE MILES
WCI - WIND CHILL INDEX
HX  - HEAT INDEX